Weather Roundup
Issued by NWS Chicago, IL

Home | Current Version | Previous Version | Graphics & Text | Print | Product List | Glossary On
Versions: 1 2 3 4 5 6 7 8 9 10 11 12 13 14 15 16 17 18 19 20 21 22 23 24 25 26 27 28 29 30 31 32 33 34 35 36 37 38 39 40 41 42 43 44 45 46 47 48 49 50
000
NZUS59 KLOT 171208
HRRLOT

CHICAGO AREA WEATHER ROUNDUP
NATIONAL WEATHER SERVICE CHICAGO/ROMEOVILLE IL
700 AM CDT THU AUG 17 2017

NOTE: "FAIR" INDICATES FEW OR NO CLOUDS BELOW 12,000 FEET WITH NO
SIGNIFICANT WEATHER AND/OR OBSTRUCTIONS TO VISIBILITY.

* THESE STATIONS ARE NOT UNDER NWS QUALITY CONTROL. THEY ALSO MAY NOT
  REPORT WEATHER SUCH AS PRECIPITATION OR FOG.

ILZ005-006-012>014-019>023-171300-
NORTHEAST ILLINOIS

CITY           SKY/WX    TMP DP  RH WIND       PRES   REMARKS
OHARE          LGT RAIN  74  69  85 S12G20    29.78R
6HR MIN TEMP:  74; 6HR MAX TEMP:  77; 6HR PCP: TRACE;

MIDWAY         CLOUDY    73  71  93 S9        29.79R
6HR MIN TEMP:  73; 6HR MAX TEMP:  79; 6HR PCP:  0.10;

AURORA         CLOUDY    72  70  93 S7        29.79R
6HR MIN TEMP:  72; 6HR MAX TEMP:  75; 6HR PCP:  0.01;

LANSING*       CLOUDY    71  67  85 S12       29.81S
JOLIET*        LGT RAIN  73  72  96 S7        29.80S
WAUKEGAN       LGT RAIN  72  71  97 SW8       29.76S
6HR MIN TEMP:  71; 6HR MAX TEMP:  76; 6HR PCP:  0.09;

DUPAGE AIRPORT CLOUDY    71  71 100 S10       29.78R
6HR MIN TEMP:  71; 6HR MAX TEMP:  74; 6HR PCP:  0.05;

WHEELING       LGT RAIN  73  71  93 SW13G18   29.79R
6HR MIN TEMP:  73; 6HR MAX TEMP:  76; 6HR PCP:  0.06;

MORRIS*        LGT RAIN  71  69  94 S6        29.79R
LEWIS AIRPORT* RAIN      71  68  89 S9        29.80R
NORTHERLY ISL    N/A     72  68  87 S13         N/A
$$

WIZ051-052-058>065-066-070>072-171300-
SOUTHEAST WISCONSIN

CITY           SKY/WX    TMP DP  RH WIND       PRES   REMARKS
MILWAUKEE      CLOUDY    73  71  93 SW9       29.73S
6HR MIN TEMP:  73; 6HR MAX TEMP:  76; 6HR PCP:  0.22;

KENOSHA*       CLOUDY    72  69  90 SW10      29.76S
RACINE*        LGT RAIN  72  70  93 SW8       29.76S
WAUKESHA       CLOUDY    70  68  94 SW9       29.75S
WEST BEND      CLOUDY    70  70 100 S12       29.71F
$$

INZ001>003-010>013-019-020-171300-
NORTHWEST INDIANA

CITY           SKY/WX    TMP DP  RH WIND       PRES   REMARKS
GARY*          MOCLDY    73  70  88 S9        29.81S
MICHIGAN CITY* NOT AVBL
RENSSELAER*    NOT AVBL
VALPARAISO     CLOUDY    73  70  90 S10       29.84R
$$

LMZ740>746-171300-
SOUTHERN LAKE MICHIGAN

STATION/POSITION TIME  SKY/WX   TEMP WIND        PRES    VSBY
                                AIR  DIR/SP/G
                 (UTC)          (F)  (DEG/KT/KT) (MB)    (MI)
HARRISON CRIB    1130            73  210/ 16/ 18   N/A
BURNHAM HARBOR   NOT AVBL
CALUMET HARBOR   1148            73  180/  8/ 13 1008.5R
BURNS HARBOR     1140            73  190/ 12/ 17 1009.8S
MICHIGAN CITY    1140            72  160/ 13/ 14   N/A
$$

ABBREVIATIONS USED IN REMARKS
   TC - TEMPERATURE IN CELSIUS
  WCI - WIND CHILL INDEX
   HX - HEAT INDEX
  VSB - VISIBILITY
$$



USA.gov is the U.S. government's official web portal to all federal, state and local government web resources and services.